Location: Alsip
(41.6689°N, 87.7387°W)
Time: 14:10:21
(UTC+00:00)

Cosmos 1378 Rocket - Pass Details

Date: 14 July 2020
Orbit: 602 x 626 km, 82.5° (Epoch: 04 August)

Event Time Altitude Azimuth Distance (km) Brightness Sun altitude
Rises 08:45:55 0° 351° (N) 2,899 7.6 -15.6°
Reaches altitude 10° 08:48:08 10° 350° (N) 1,993 6.7 -15.4°
Maximum altitude 08:52:33 81° 265° (W) 634 3.5 -14.8°
Enters shadow 08:56:31 13° 177° (S) 1,807 5.5 -14.3°
